Nassau, Bahamas

7:12 PM EDT on June 22, 2017 (GMT -0400)
Nassau International

Weather History for MYNN - March, 2012

Change the Weather History Date:

Sunday, March 25, 2012

  Actual Average Record
Temperature  
Mean Temperature 78 °F -  
Max Temperature 82 °F 82 °F 90 °F (2013)
Min Temperature 73 °F 66 °F 62 °F (1999)
Cooling Degree Days 12    
Growing Degree Days 28 (Base 50)    
Moisture  
Dew Point 66 °F    
Average Humidity 63    
Maximum Humidity 83    
Minimum Humidity 40    
Precipitation  
Precipitation 0.00 in 0.07 in - ()
Sea Level Pressure  
Sea Level Pressure 29.95 in    
Wind  
Wind Speed 6 mph ()    
Max Wind Speed 16 mph    
Max Gust Speed -    
Visibility 6.8 miles    
Events Rain    
Averages and records for this station are not official NWS values.
T = Trace of Precipitation, MM = Missing Value Source: Averaged Metar Reports

Daily Weather History Graph

Daily Weather History Graph

Search for Another Location

Airport or City:

Trip Planner

Search our weather history database for the weather conditions in past years. The results will help you decide how hot, cold, wet, or windy it might be!

Date:

Astronomy

Mar. 25, 2012 Rise Set
Actual Time 7:08 AM EDT 7:23 PM EDT
Civil Twilight 6:45 AM EDT 7:46 PM EDT
Nautical Twilight 6:18 AM EDT 8:13 PM EDT
Astronomical Twilight 5:51 AM EDT 8:39 PM EDT
Moon 8:41 AM EDT (3/25) 10:12 PM EDT (3/25)
Length of Visible Light 13h 01m
Length of Day
12h 15m
Waxing Crescent, 8% of the Moon is Illuminated
Mar 25
Waxing Crescent
Mar 30
First Quarter
Apr 6
Full
Apr 13
Last Quarter
Apr 21
New

Hourly Weather History & Observations

Time (EDT) Temp. Heat Index Dew Point Humidity Pressure Visibility Wind Dir Wind Speed Gust Speed Precip Events Conditions
12:00 AM 77.0 °F - 62.6 °F 61% 30.02 in 6.2 mi Calm Calm - N/A   Mostly Cloudy
1:00 AM 77.0 °F - 62.6 °F 61% 30.00 in 6.2 mi SSE 5.8 mph - N/A   Scattered Clouds
2:00 AM 74 °F - 66 °F 71% 29.99 in 9 mi SSE 3.5 mph - -   Partly Cloudy
2:00 AM 73.4 °F - 66.2 °F 78% 29.99 in 6.2 mi SSE 3.5 mph - N/A   Partly Cloudy
3:00 AM 77.0 °F - 64.4 °F 65% 29.97 in 6.2 mi SSE 4.6 mph - N/A   Partly Cloudy
4:00 AM 77.0 °F - 64.4 °F 65% 29.96 in 6.2 mi South 5.8 mph - N/A   Scattered Clouds
5:00 AM 74 °F - 64 °F 62% 29.95 in 9 mi South 3.5 mph - -   Partly Cloudy
5:00 AM 73.4 °F - 64.4 °F 73% 29.95 in 6.2 mi South 3.5 mph - N/A   Scattered Clouds
6:00 AM 77.0 °F - 64.4 °F 65% 29.96 in 6.2 mi South 5.8 mph - N/A   Scattered Clouds
7:00 AM 77.0 °F - 64.4 °F 65% 29.97 in 6.2 mi South 6.9 mph - N/A   Scattered Clouds
8:00 AM 75.2 °F - 66.2 °F 73% - 6.2 mi South 6.9 mph - N/A   Scattered Clouds
9:00 AM 80.6 °F 82.3 °F 64.4 °F 58% 29.99 in 6.2 mi South 4.6 mph - N/A   Scattered Clouds
10:00 AM 84.2 °F 86.6 °F 66.2 °F 55% 29.99 in 6.2 mi South 11.5 mph - N/A Rain Light Rain Showers
11:00 AM 80.6 °F 83.2 °F 68.0 °F 65% 30.00 in 6.2 mi SSW 15.0 mph - N/A   Scattered Clouds
12:00 PM 86.0 °F 87.3 °F 64.4 °F 48% 29.99 in 6.2 mi SSW 12.7 mph - N/A   Scattered Clouds
1:00 PM 86.0 °F 88.2 °F 66.2 °F 51% 29.97 in 6.2 mi South 16.1 mph - N/A   Scattered Clouds
2:00 PM 82 °F - 70 °F 59% 29.94 in 9 mi SSE 15.0 mph - -   Mostly Cloudy
2:00 PM 82.4 °F 86.3 °F 69.8 °F 66% 29.94 in 6.2 mi SSE 3.5 mph - N/A   Scattered Clouds
3:00 PM 86.0 °F 88.2 °F 66.2 °F 51% 29.91 in 6.2 mi South 15.0 mph - N/A   Scattered Clouds
4:00 PM 86.0 °F 87.3 °F 64.4 °F 48% 29.90 in 6.2 mi South 15.0 mph - N/A   Scattered Clouds
5:00 PM 82 °F - 69 °F 57% 29.89 in 9 mi South 15.0 mph - -   Partly Cloudy
5:00 PM 82.4 °F 86.3 °F 69.8 °F 66% 29.89 in 6.2 mi South 15.0 mph - N/A   Scattered Clouds
6:00 PM 82.4 °F 84.6 °F 66.2 °F 58% 29.89 in 6.2 mi South 13.8 mph - N/A   Scattered Clouds
7:00 PM 82.4 °F 84.6 °F 66.2 °F 58% 29.87 in 6.2 mi South 8.1 mph - N/A   Scattered Clouds
8:00 PM 78 °F - 58 °F 40% 29.95 in 9 mi North 6.9 mph - -   Partly Cloudy
8:00 PM 78.8 °F - 71.6 °F 78% 29.89 in 6.2 mi South 4.6 mph - N/A   Partly Cloudy
9:00 PM 80.6 °F 83.9 °F 69.8 °F 70% 29.90 in 6.2 mi SW 4.6 mph - N/A   Partly Cloudy
10:00 PM 78.8 °F - 68.0 °F 69% 29.91 in 6.2 mi SW 4.6 mph - N/A   Partly Cloudy
11:00 PM 76 °F - 71 °F 80% 29.92 in 9 mi SW 4.6 mph - -   Clear
11:00 PM 77.0 °F - 71.6 °F 83% 29.91 in - SW 4.6 mph - N/A   Clear